Weather History for Boise, ID

Change the Weather History Date:

Monday, March 11, 2013

  Actual Average Record
Temperature  
Mean Temperature 47 °F 43 °F  
Max Temperature 57 °F 53 °F 70 °F (1900)
Min Temperature 36 °F 34 °F 17 °F (1956)
Degree Days  
Heating Degree Days 18 22  
Month to date heating degree days 250 253  
Since 1 July heating degree days 4347 4412  
Cooling Degree Days 0 0  
Month to date cooling degree days 0 0  
Year to date cooling degree days 0 0  
Moisture  
Dew Point 28 °F    
Average Humidity 49    
Maximum Humidity 60    
Minimum Humidity 38    
Precipitation  
Precipitation 0.00 in 0.04 in 0.88 in (1952)
Month to date precipitation 0.02 0.46  
Year to date precipitation 1.86 2.69  
Snow  
Snow 0.00 in 0.00 in 6.30 in (1952)
Month to date snowfall 0.0 0.6  
Since 1 July snowfall 15.7 18.2  
Snow Depth 0.00 in    
Sea Level Pressure  
Sea Level Pressure 30.24 in    
Wind  
Wind Speed 7 mph (NW)    
Max Wind Speed 22 mph    
Max Gust Speed 25 mph    
Visibility 10 miles    
Events      
T = Trace of Precipitation, MM = Missing Value Source: NWS Daily Summary

Daily Weather History Graph

Daily Weather History Graph

Search for Another Location

Airport:

Trip Planner

Search our weather history database for the weather conditions in past years. The results will help you decide how hot, cold, wet, or windy it might be!

Date:

Astronomy

Mar. 11, 2013 Rise Set
Actual Time 8:03 AM MDT 7:46 PM MDT
Civil Twilight 7:35 AM MDT 8:15 PM MDT
Nautical Twilight 7:01 AM MDT 8:48 PM MDT
Astronomical Twilight 6:28 AM MDT 9:22 PM MDT
Moon 7:38 AM MDT (3/11) 8:05 PM MDT (3/11)
Length of Visible Light 12h 40m
Length of Day
11h 43m
Waning Crescent, 0% of the Moon is Illuminated
Mar 11
Waning Crescent
Mar 11
New
Mar 19
First Quarter
Mar 27
Full
Apr 2
Last Quarter

Hourly Weather History & Observations

Time (MDT) Temp. Windchill Dew Point Humidity Pressure Visibility Wind Dir Wind Speed Gust Speed Precip Events Conditions
12:53 AM 43.0 °F - 19.0 °F 38% 30.27 in 10.0 mi Calm Calm - N/A   Mostly Cloudy
1:53 AM 41.0 °F - 21.0 °F 45% 30.27 in 10.0 mi Calm Calm - N/A   Overcast
2:53 AM 42.1 °F - 19.9 °F 41% 30.27 in 10.0 mi Calm Calm - N/A   Overcast
3:53 AM 42.1 °F - 19.9 °F 41% 30.26 in 10.0 mi Calm Calm - N/A   Overcast
4:53 AM 41.0 °F - 23.0 °F 49% 30.25 in 10.0 mi Calm Calm - N/A   Overcast
5:53 AM 41.0 °F 39.0 °F 21.9 °F 47% 30.25 in 10.0 mi SW 3.5 mph - N/A   Mostly Cloudy
6:53 AM 41.0 °F - 21.9 °F 47% 30.26 in 10.0 mi Calm Calm - N/A   Partly Cloudy
7:53 AM 37.9 °F - 23.0 °F 55% 30.26 in 10.0 mi Calm Calm - N/A   Clear
8:53 AM 39.9 °F - 24.1 °F 53% 30.27 in 10.0 mi Calm Calm - N/A   Overcast
9:53 AM 43.0 °F 39.5 °F 28.9 °F 58% 30.28 in 10.0 mi West 5.8 mph - N/A   Overcast
10:53 AM 46.9 °F - 33.1 °F 59% 30.28 in 10.0 mi West 8.1 mph - N/A   Overcast
11:53 AM 51.1 °F - 35.1 °F 54% 30.27 in 10.0 mi West 12.7 mph - N/A   Partly Cloudy
12:53 PM 54.0 °F - 33.1 °F 45% 30.25 in 10.0 mi NW 16.1 mph 21.9 mph N/A   Clear
1:53 PM 55.9 °F - 32.0 °F 40% 30.25 in 10.0 mi NW 12.7 mph 21.9 mph N/A   Partly Cloudy
2:53 PM 55.9 °F - 33.1 °F 42% 30.22 in 10.0 mi NNW 16.1 mph - N/A   Overcast
3:53 PM 55.9 °F - 33.1 °F 42% 30.21 in 10.0 mi North 16.1 mph 21.9 mph N/A   Overcast
4:53 PM 55.0 °F - 30.9 °F 40% 30.21 in 10.0 mi NNW 12.7 mph - N/A   Scattered Clouds
5:53 PM 55.0 °F - 30.0 °F 38% 30.19 in 10.0 mi NNW 15.0 mph - N/A   Mostly Cloudy
6:53 PM 54.0 °F - 30.0 °F 40% 30.19 in 10.0 mi NNW 13.8 mph - N/A   Partly Cloudy
7:53 PM 51.1 °F - 28.9 °F 43% 30.21 in 10.0 mi NNW 11.5 mph - N/A   Clear
8:53 PM 48.9 °F - 30.9 °F 50% 30.22 in 10.0 mi NW 6.9 mph - N/A   Mostly Cloudy
9:53 PM 48.0 °F - 30.9 °F 52% 30.23 in 10.0 mi WNW 4.6 mph - N/A   Overcast
10:53 PM 46.0 °F 43.9 °F 30.9 °F 56% 30.24 in 10.0 mi NNW 4.6 mph - N/A   Mostly Cloudy
11:53 PM 46.0 °F - 30.9 °F 56% 30.24 in 10.0 mi Calm Calm - N/A   Mostly Cloudy